Tracking 30995 objects as of 7-Jul-2025
HD Live streaming from Space Station
objects crossing your sky now

SCOUT G-1 R/B

Track SCOUT G-1 R/B now!
10-day predictions


NORAD ID: 18363
Int'l Code: 1987-080C
Perigee: 1,023.0 km
Apogee: 1,179.3 km
Inclination: 90.4 °
Period: 107.1 minutes
Semi major axis: 7472 km
RCS: 0.8872 m2 (medium)
Launch date: September 16, 1987
Source: United States (US)
Launch site: AIR FORCE WESTERN TEST RANGE (AFWTR)

Note: This is a ROCKET BODY
Your satellite tracking list
Your tracking list is empty




NASA's NSSDC Master Catalog

Two Line Element Set (TLE):
1 18363U 87080C   25187.75733880  .00000067  00000-0  99157-4 0  9996
2 18363  90.3717  73.5906 0104567   0.2914  64.8541 13.44117348853694
Source of the keplerian elements: AFSPC